CST,Max TemperatureF,Mean TemperatureF,Min TemperatureF,Max Dew PointF,MeanDew PointF,Min DewpointF,Max Humidity, Mean Humidity, Min Humidity, Max Sea Level PressureIn, Mean Sea Level PressureIn, Min Sea Level PressureIn, Max VisibilityMiles, Mean VisibilityMiles, Min VisibilityMiles, Max Wind SpeedMPH, Mean Wind SpeedMPH, Max Gust SpeedMPH,PrecipitationIn, CloudCover, Events, WindDirDegrees
2013-1-1,73,64,54,63,59,49,100,88,66,30.08,29.98,29.92,10,7,1,16,7,24,0.65,8,Rain,230
2013-1-2,53,48,42,52,44,39,94,83,71,30.18,30.09,29.99,10,10,7,14,9,22,0.01,7,Rain,339
2013-1-3,46,41,35,39,35,27,93,83,56,30.35,30.24,30.17,10,7,4,9,6,,0.32,5,Rain,338
2013-1-4,55,44,32,33,27,22,82,59,28,30.42,30.36,30.32,10,10,10,12,5,,0.00,0,Hail,352
2013-1-5,52,44,35,36,30,26,82,58,38,30.39,30.33,30.26,10,10,10,9,3,,0.00,3,,39
2013-1-6,52,46,41,42,39,33,93,77,59,30.29,30.24,30.19,10,10,4,9,5,,0.06,6,Rain,356
2013-1-7,57,44,30,36,33,29,92,67,33,30.34,30.28,30.24,10,10,6,12,4,,0.00,0,,55
2013-1-8,60,52,44,52,45,34,77,71,64,30.29,30.24,30.21,10,10,10,9,5,,0.00,7,,88
2013-1-9,66,62,57,61,57,51,96,86,75,30.32,30.27,30.23,10,9,3,9,7,,0.00,8,Rain,86
2013-1-10,75,68,62,66,63,61,100,88,65,30.31,30.23,30.06,10,6,0,14,7,22,0.07,7,Fog-Rain,127
2013-1-11,78,69,60,65,63,59,97,81,58,30.17,30.11,30.07,10,10,10,13,7,21,0.04,5,Rain,170
2013-1-12,75,70,64,65,62,58,96,82,54,30.14,30.07,30.01,10,10,8,13,7,18,0.00,6,,169
2013-1-13,75,70,64,67,65,63,94,88,67,30.03,30.00,29.96,10,9,2,13,7,20,0.32,8,Rain,159
2013-1-14,69,58,46,67,54,46,100,96,88,30.13,30.08,29.98,10,3,0,12,6,,0.34,8,Fog-Rain-Hail,319
2013-1-15,73,60,48,67,58,46,100,93,73,30.06,29.99,29.92,10,5,0,12,3,17,0.60,7,Fog-Rain,227
2013-1-16,68,57,45,66,50,43,100,95,87,30.03,29.97,29.91,10,8,2,9,5,,0.31,8,Rain,310
2013-1-17,43,40,36,42,35,31,97,85,73,30.32,30.09,29.95,10,9,4,17,11,33,0.02,6,Rain,281
2013-1-18,57,45,33,35,31,27,89,70,33,30.52,30.43,30.34,10,10,8,8,6,,0.00,0,,6
2013-1-19,61,46,30,41,33,27,92,68,36,30.43,30.33,30.23,10,10,10,7,1,,0.01,1,,18
2013-1-20,64,49,34,44,36,31,93,68,32,30.26,30.19,30.12,10,10,10,9,2,,0.00,0,,316
2013-1-21,64,49,34,42,36,31,89,62,37,30.20,30.16,30.11,10,10,10,14,4,17,0.00,0,,342
2013-1-22,54,44,33,31,24,17,89,53,26,30.37,30.30,30.20,10,10,10,10,6,,0.00,0,Hail,356
2013-1-23,62,46,30,46,35,28,89,66,38,30.41,30.32,30.27,10,10,10,8,3,,0.00,4,,199
2013-1-24,66,58,48,52,49,44,93,75,60,30.32,30.27,30.23,10,10,7,10,6,17,0.00,5,,285
2013-1-25,70,59,48,53,48,40,89,70,49,30.28,30.21,30.12,10,10,7,15,7,22,0.00,3,,184
2013-1-26,59,54,48,55,51,41,94,86,66,30.27,30.22,30.15,10,9,6,8,4,,0.00,7,,325
2013-1-27,70,58,45,48,43,33,80,59,41,30.34,30.29,30.26,10,10,10,9,3,,0.00,3,,99
2013-1-28,72,62,53,58,53,47,94,79,55,30.34,30.27,30.18,10,9,2,8,4,,0.00,5,,135
2013-1-29,75,68,60,67,62,59,96,83,64,30.17,30.05,29.88,10,8,4,14,6,29,0.02,8,Rain,155
2013-1-30,73,58,43,70,60,28,94,88,56,30.04,29.77,29.62,10,8,2,22,12,37,1.37,8,Rain-Thunderstorm,212
2013-1-31,55,45,35,34,27,21,83,55,27,30.27,30.19,30.06,10,10,10,17,8,22,0.00,0,,286